Home   Weather   Dietzenbach   Past weeks

Flag for Germany Past Weather in Dietzenbach, Hesse, Germany — Yesterday and Last 2 Weeks

Now
28 °F

Ice fog.


Feels Like: 23 °F
Forecast: 26 / 33 °F
Wind: 5 mph from East

Location: Frankfurt-M-Flughafen Airport

Current Time: Dec 6, 2016 at 10:55:26 pm

Latest Report: Dec 6, 2016 at 10:20 pm


Visibility: 1 mi

Pressure: 30.54 "Hg

Humidity: 100%

Dew Point: 28 °F

Location of DietzenbachLocation

Past Weather in Dietzenbach — Graph

°F

Dietzenbach Temperature Yesterday

Maximum temperature yesterday: 30 °F (at 12:50 pm)
Minimum temperature yesterday: 21 °F (at 5:50 am)
Average temperature yesterday: 26 °F

High & Low Weather Summary for the Past Weeks

 TemperatureHumidityPressure
High57 °F (Nov 24, 1:50 pm)100% (Nov 22, 12:50 am)30.57 "Hg (Nov 22, 12:50 am)
Low18 °F (Nov 30, 8:20 am)48% (Nov 28, 2:20 pm)29.65 "Hg (Nov 21, 9:20 pm)
Average38 °F81%30.23 "Hg
* Reported Nov 21 9:20 pm — Dec 6 9:50 pm, Dietzenbach, Weather by CustomWeather, © 2016

Note: Actual official high and low records may vary slightly from our data, if they occured in-between our weather recording intervals... More about our weather records

Advertising

Dietzenbach Weather History for the Previous 24 Hours

Scroll right to see more
 ConditionsComfort  
Time TempWeatherWind HumidityBarometerVisibility
9:50 pm
Tue, Dec 6
28 °FIce fog.1 mph100%30.54 "Hg1 mi
9:20 pm28 °FIce fog.1 mph100%30.57 "Hg1 mi
8:50 pm28 °FIce fog.7 mph100%30.54 "Hg1 mi
8:20 pm28 °FIce fog.6 mph100%30.54 "Hg1 mi
7:50 pm28 °FIce fog.5 mph100%30.54 "Hg1 mi
6:50 pm28 °FIce fog.5 mph100%30.54 "Hg1 mi
6:20 pm28 °FMostly cloudy.3 mph100%30.54 "Hg1 mi
5:50 pm28 °FMostly cloudy.3 mph100%30.54 "Hg1 mi
5:20 pm28 °FLow clouds.6 mph100%30.54 "Hg1 mi
4:50 pm30 °FIce fog.7 mph93%30.51 "Hg1 mi
4:20 pm30 °FChilly.3 mph93%30.51 "Hg1 mi
3:50 pm28 °FIce fog.2 mph100%30.51 "Hg1 mi
3:20 pm28 °FIce fog.2 mph100%30.51 "Hg1 mi
2:50 pm28 °FSnow flurries. Ice fog.2 mph100%30.51 "Hg1 mi
2:20 pm28 °FSnow flurries. Ice fog.1 mph100%30.51 "Hg1 mi
1:50 pm28 °FSnow flurries. Ice fog.2 mph100%30.51 "Hg1 mi
1:20 pm28 °FSnow flurries. Ice fog.2 mph93%30.51 "Hg1 mi
12:50 pm28 °FIce fog.2 mph100%30.51 "Hg1 mi
12:20 pm28 °FSnow flurries. Ice fog.2 mph93%30.51 "Hg1 mi
11:50 am28 °FIce fog.5 mph93%30.51 "Hg1 mi
11:20 am28 °FIce fog.5 mph93%30.51 "Hg1 mi
10:50 am28 °FIce fog.3 mph93%30.51 "Hg1 mi
10:20 am28 °FIce fog.5 mph93%30.51 "Hg1 mi
9:50 am27 °FIce fog.3 mph100%30.48 "Hg1 mi
9:20 am27 °FIce fog.5 mph93%30.48 "Hg1 mi
8:50 am27 °FIce fog.5 mph100%30.48 "Hg1 mi
8:20 am27 °FSnow flurries. Ice fog.3 mph93%30.48 "Hg1 mi
7:50 am27 °FSnow flurries. Ice fog.3 mph100%30.45 "Hg1 mi
7:20 am27 °FSnow flurries. Ice fog.3 mph100%30.45 "Hg1 mi
6:50 am27 °FIce fog.1 mph100%30.45 "Hg1 mi
6:20 am27 °FSnow flurries. Ice fog.2 mph100%30.45 "Hg1 mi
5:50 am27 °FSnow flurries. Ice fog.2 mph100%30.45 "Hg1 mi
5:20 am27 °FSnow flurries. Ice fog.3 mph100%30.42 "Hg0 mi
4:50 am27 °FSnow flurries. Ice fog.3 mph100%30.42 "Hg0 mi
4:20 am27 °FSnow flurries. Ice fog.3 mph100%30.42 "Hg1 mi
3:50 am27 °FSnow flurries. Ice fog.3 mph100%30.42 "Hg0 mi
3:20 am27 °FSnow flurries. Ice fog.2 mph100%30.42 "Hg0 mi
2:50 am28 °FSnow flurries. Ice fog.3 mph93%30.42 "Hg0 mi
2:20 am27 °FSnow flurries. Ice fog.2 mph100%30.42 "Hg0 mi
1:50 am28 °FSnow flurries. Ice fog.2 mph93%30.42 "Hg0 mi
1:20 am27 °FSnow flurries. Ice fog.2 mph100%30.42 "Hg0 mi
12:50 am27 °FSnow flurries. Ice fog.1 mph100%30.42 "Hg1 mi
12:20 am28 °FSnow flurries. Ice fog.2 mph93%30.42 "Hg1 mi
11:50 pm
Mon, Dec 5
27 °FSnow flurries. Ice fog.3 mph100%30.42 "Hg1 mi
11:20 pm27 °FSnow flurries. Ice fog.2 mph100%30.42 "Hg1 mi
10:50 pm27 °FSnow flurries. Ice fog.2 mph100%30.42 "Hg1 mi
10:20 pm28 °FSnow flurries. Ice fog.2 mph93%30.42 "Hg1 mi
Weather by CustomWeather, © 2016

See weather overviewHow to use our weather pages